When you browse on this site, cookies collect data to enhance your experience and personalize the content and advertising you see.
Visit our Privacy Policy to learn more. By continuing to use the site, you agree to this use of cookies and data.

Hourly Weather Idzhewan

Today, 9 July, Thursday

Time Temperature Precipitation Wind Pressure Humidity
00:00 +22°C° 0 mm 1 mps 690 mmHg 74%
01:00 +21°C° 0 mm 1 mps 690 mmHg 75%
02:00 +21°C° 0 mm 1 mps 690 mmHg 76%
03:00 +20°C° 0 mm 2 mps 690 mmHg 77%
04:00 +20°C° 0 mm 2 mps 691 mmHg 76%
05:00 +21°C° 0 mm 2 mps 691 mmHg 75%
06:00 +23°C° 0 mm 2 mps 691 mmHg 74%
07:00 +25°C° 0 mm 2 mps 691 mmHg 67%
08:00 +27°C° 0 mm 2 mps 691 mmHg 60%
09:00 +29°C° 0 mm 2 mps 692 mmHg 53%
10:00 +29°C° 0.2 mm 2 mps 691 mmHg 51%
11:00 +30°C° 0.2 mm 2 mps 691 mmHg 49%
12:00 +31°C° 0.2 mm 3 mps 691 mmHg 47%
13:00 +32°C° 0.3 mm 2 mps 691 mmHg 46%
14:00 +32°C° 0.3 mm 2 mps 691 mmHg 45%
15:00 +32°C° 0.3 mm 2 mps 691 mmHg 44%
16:00 +31°C° 0.2 mm 2 mps 691 mmHg 49%
17:00 +30°C° 0.2 mm 2 mps 691 mmHg 54%
18:00 +29°C° 0.2 mm 2 mps 691 mmHg 58%
19:00 +27°C° 0.2 mm 2 mps 691 mmHg 63%
20:00 +25°C° 0.2 mm 1 mps 692 mmHg 68%
21:00 +23°C° 0.2 mm 1 mps 692 mmHg 73%
22:00 +23°C° 0.1 mm 1 mps 692 mmHg 75%
23:00 +22°C° 0.1 mm 1 mps 692 mmHg 78%

Tomorrow, 10 July, Friday

Time Temperature Precipitation Wind Pressure Humidity
00:00 +21°C° 0.1 mm 1 mps 692 mmHg 80%
01:00 +21°C° 0.1 mm 1 mps 692 mmHg 82%
02:00 +20°C° 0.1 mm 1 mps 692 mmHg 83%
03:00 +20°C° 0.1 mm 1 mps 692 mmHg 84%
04:00 +21°C° 0 mm 1 mps 692 mmHg 82%
05:00 +22°C° 0 mm 1 mps 692 mmHg 81%
06:00 +22°C° 0 mm 1 mps 693 mmHg 79%
07:00 +23°C° 0.1 mm 1 mps 693 mmHg 76%
08:00 +24°C° 0.1 mm 2 mps 693 mmHg 72%
09:00 +26°C° 0.1 mm 2 mps 693 mmHg 69%
10:00 +27°C° 0 mm 2 mps 693 mmHg 66%
11:00 +28°C° 0 mm 2 mps 693 mmHg 63%
12:00 +29°C° 0 mm 2 mps 693 mmHg 60%
13:00 +29°C° 0.3 mm 2 mps 692 mmHg 60%
14:00 +29°C° 0.3 mm 2 mps 692 mmHg 60%
15:00 +29°C° 0.3 mm 2 mps 692 mmHg 59%
16:00 +29°C° 0.4 mm 2 mps 692 mmHg 63%
17:00 +29°C° 0.4 mm 2 mps 692 mmHg 66%
18:00 +28°C° 0.4 mm 2 mps 692 mmHg 69%
19:00 +26°C° 0.7 mm 1 mps 692 mmHg 73%
20:00 +25°C° 0.7 mm 1 mps 693 mmHg 77%
21:00 +23°C° 0.7 mm 1 mps 693 mmHg 81%
22:00 +22°C° 0.8 mm 1 mps 693 mmHg 84%
23:00 +21°C° 0.8 mm 1 mps 693 mmHg 87%

Day after tomorrow, 11 July, Saturday

Time Temperature Precipitation Wind Pressure Humidity
00:00 +21°C° 0.8 mm 1 mps 693 mmHg 91%
01:00 +21°C° 0.5 mm 1 mps 693 mmHg 92%
02:00 +21°C° 0.5 mm 1 mps 693 mmHg 94%
03:00 +21°C° 0.5 mm 1 mps 693 mmHg 96%
04:00 +21°C° 0.1 mm 1 mps 693 mmHg 96%
05:00 +21°C° 0.1 mm 1 mps 693 mmHg 96%
06:00 +22°C° 0.1 mm 1 mps 693 mmHg 96%
07:00 +22°C° 0.1 mm 1 mps 693 mmHg 94%
08:00 +22°C° 0.1 mm 1 mps 693 mmHg 92%
09:00 +23°C° 0.1 mm 1 mps 693 mmHg 90%
10:00 +24°C° 0.2 mm 1 mps 693 mmHg 85%
11:00 +25°C° 0.2 mm 2 mps 693 mmHg 80%
12:00 +26°C° 0.2 mm 2 mps 692 mmHg 75%
13:00 +27°C° 0.1 mm 2 mps 692 mmHg 73%
14:00 +27°C° 0.1 mm 2 mps 692 mmHg 71%
15:00 +28°C° 0.1 mm 2 mps 691 mmHg 68%
16:00 +28°C° 0.3 mm 2 mps 691 mmHg 70%
17:00 +27°C° 0.3 mm 2 mps 691 mmHg 72%
18:00 +27°C° 0.3 mm 2 mps 691 mmHg 74%
19:00 +26°C° 0.9 mm 1 mps 692 mmHg 75%
20:00 +25°C° 0.9 mm 1 mps 692 mmHg 77%
21:00 +23°C° 0.9 mm 1 mps 692 mmHg 78%
22:00 +23°C° 0.1 mm 1 mps 692 mmHg 78%
23:00 +23°C° 0.1 mm 1 mps 692 mmHg 78%

12 July, Sunday

Time Temperature Precipitation Wind Pressure Humidity
00:00 +23°C° 0.1 mm 1 mps 692 mmHg 77%
01:00 +22°C° 0.1 mm 1 mps 691 mmHg 79%
02:00 +22°C° 0.1 mm 1 mps 691 mmHg 81%
03:00 +21°C° 0.1 mm 1 mps 691 mmHg 83%
04:00 +22°C° 0 mm 1 mps 691 mmHg 83%
05:00 +22°C° 0 mm 1 mps 691 mmHg 84%
06:00 +22°C° 0 mm 1 mps 691 mmHg 85%
07:00 +23°C° 0.3 mm 1 mps 691 mmHg 81%
08:00 +25°C° 0.3 mm 1 mps 691 mmHg 77%
09:00 +26°C° 0.3 mm 2 mps 691 mmHg 74%
10:00 +27°C° 0.6 mm 2 mps 691 mmHg 71%
11:00 +27°C° 0.6 mm 2 mps 691 mmHg 69%
12:00 +28°C° 0.6 mm 2 mps 691 mmHg 66%
13:00 +28°C° 0.3 mm 2 mps 690 mmHg 64%
14:00 +29°C° 0.3 mm 2 mps 690 mmHg 62%
15:00 +29°C° 0.3 mm 1 mps 690 mmHg 60%
16:00 +29°C° 0.2 mm 1 mps 690 mmHg 61%
17:00 +29°C° 0.2 mm 1 mps 690 mmHg 63%
18:00 +29°C° 0.2 mm 1 mps 690 mmHg 64%
19:00 +27°C° 0.2 mm 1 mps 690 mmHg 67%
20:00 +25°C° 0.2 mm 1 mps 690 mmHg 69%
21:00 +24°C° 0.2 mm 1 mps 690 mmHg 72%
22:00 +24°C° 0 mm 1 mps 690 mmHg 71%
23:00 +23°C° 0 mm 1 mps 690 mmHg 71%

13 July, Monday

Time Temperature Precipitation Wind Pressure Humidity
00:00 +23°C° 0 mm 1 mps 690 mmHg 70%
01:00 +23°C° 0 mm 1 mps 690 mmHg 72%
02:00 +22°C° 0 mm 1 mps 689 mmHg 74%
03:00 +20°C° 0 mm 0 mps 689 mmHg 76%
04:00 +22°C° 0.1 mm 1 mps 689 mmHg 77%
05:00 +22°C° 0.1 mm 1 mps 689 mmHg 78%
06:00 +23°C° 0.1 mm 1 mps 690 mmHg 79%
07:00 +24°C° 0.1 mm 1 mps 689 mmHg 76%
08:00 +25°C° 0.1 mm 1 mps 689 mmHg 73%
09:00 +27°C° 0.1 mm 2 mps 689 mmHg 70%
10:00 +27°C° 0.4 mm 2 mps 689 mmHg 68%
11:00 +28°C° 0.4 mm 2 mps 689 mmHg 65%
12:00 +29°C° 0.4 mm 2 mps 689 mmHg 63%
13:00 +30°C° 0.4 mm 2 mps 689 mmHg 61%
14:00 +30°C° 0.4 mm 2 mps 688 mmHg 59%
15:00 +31°C° 0.4 mm 2 mps 688 mmHg 57%
16:00 +30°C° 0.7 mm 2 mps 688 mmHg 60%
17:00 +30°C° 0.7 mm 1 mps 688 mmHg 64%
18:00 +29°C° 0.7 mm 1 mps 688 mmHg 67%
19:00 +27°C° 0.7 mm 2 mps 689 mmHg 72%
20:00 +25°C° 0.7 mm 2 mps 689 mmHg 76%
21:00 +22°C° 0.7 mm 3 mps 689 mmHg 81%
22:00 +23°C° 0.1 mm 2 mps 689 mmHg 80%
23:00 +23°C° 0.1 mm 2 mps 690 mmHg 79%

14 July, Tuesday

Time Temperature Precipitation Wind Pressure Humidity
00:00 +22°C° 0.1 mm 1 mps 690 mmHg 78%
01:00 +22°C° 0.4 mm 1 mps 690 mmHg 80%
02:00 +21°C° 0.4 mm 1 mps 690 mmHg 81%
03:00 +21°C° 0.4 mm 1 mps 690 mmHg 83%
04:00 +21°C° 0.1 mm 1 mps 690 mmHg 83%
05:00 +22°C° 0.1 mm 1 mps 690 mmHg 83%
06:00 +22°C° 0.1 mm 1 mps 690 mmHg 83%
07:00 +24°C° 0.1 mm 1 mps 691 mmHg 79%
08:00 +25°C° 0.1 mm 1 mps 691 mmHg 74%
09:00 +27°C° 0.1 mm 2 mps 691 mmHg 69%
10:00 +28°C° 0.4 mm 2 mps 691 mmHg 66%
11:00 +29°C° 0.4 mm 2 mps 691 mmHg 63%
12:00 +30°C° 0.4 mm 2 mps 691 mmHg 60%
13:00 +30°C° 0.5 mm 2 mps 691 mmHg 59%
14:00 +31°C° 0.5 mm 2 mps 691 mmHg 59%
15:00 +31°C° 0.5 mm 2 mps 691 mmHg 58%
16:00 +30°C° 0.8 mm 2 mps 691 mmHg 61%
17:00 +30°C° 0.8 mm 1 mps 691 mmHg 64%
18:00 +29°C° 0.8 mm 1 mps 691 mmHg 67%
19:00 +27°C° 0.7 mm 1 mps 691 mmHg 70%
20:00 +26°C° 0.7 mm 1 mps 692 mmHg 73%
21:00 +24°C° 0.7 mm 1 mps 692 mmHg 76%
22:00 +23°C° 0.6 mm 1 mps 692 mmHg 78%
23:00 +23°C° 0.6 mm 1 mps 692 mmHg 80%
Show more